When you browse on this site, cookies collect data to enhance your experience and personalize the content and advertising you see.
Visit our Privacy Policy to learn more. By continuing to use the site, you agree to this use of cookies and data.
  • In Romania
  • List of Countries
  • For 7 days
  • Water Temperature
  • Weather Map
  • Weather Widgets
  • user-avatar
    Login

    Hourly Weather Chichester

    Today, 12 December, Thursday

    Time Temperature Precipitation Wind Pressure Humidity
    00:00 +1°C° 0 mm 5 mps 751 mmHg 88%
    01:00 +1°C° 0 mm 5 mps 751 mmHg 86%
    02:00 +1°C° 0 mm 5 mps 750 mmHg 85%
    03:00 +1°C° 0 mm 5 mps 750 mmHg 84%
    04:00 +2°C° 0 mm 5 mps 749 mmHg 83%
    05:00 +2°C° 0 mm 5 mps 748 mmHg 81%
    06:00 +3°C° 0 mm 5 mps 747 mmHg 80%
    07:00 +4°C° 1 mm 8 mps 746 mmHg 84%
    08:00 +5°C° 1 mm 10 mps 745 mmHg 88%
    09:00 +4°C° 1 mm 12 mps 743 mmHg 92%
    10:00 +5°C° 1.4 mm 12 mps 742 mmHg 91%
    11:00 +7°C° 1.4 mm 11 mps 740 mmHg 91%
    12:00 +7°C° 0 mm 12 mps 739 mmHg 90%
    13:00 +7°C° 0.8 mm 12 mps 737 mmHg 90%
    14:00 +7°C° 0.8 mm 12 mps 736 mmHg 90%
    15:00 +8°C° 0.8 mm 13 mps 734 mmHg 90%
    16:00 +7°C° 0.5 mm 12 mps 734 mmHg 89%
    17:00 +7°C° 0.5 mm 10 mps 733 mmHg 88%
    18:00 +6°C° 0.5 mm 9 mps 733 mmHg 86%
    19:00 +6°C° 0.1 mm 9 mps 732 mmHg 87%
    20:00 +6°C° 0.1 mm 8 mps 732 mmHg 88%
    21:00 +6°C° 0.1 mm 8 mps 731 mmHg 89%
    22:00 +5°C° 0.4 mm 9 mps 730 mmHg 86%
    23:00 +4°C° 0.4 mm 11 mps 730 mmHg 83%

    Tomorrow, 13 December, Friday

    Time Temperature Precipitation Wind Pressure Humidity
    00:00 +4°C° 0.4 mm 12 mps 729 mmHg 81%
    01:00 +4°C° 0.1 mm 12 mps 729 mmHg 80%
    02:00 +3°C° 0.1 mm 13 mps 729 mmHg 80%
    03:00 +3°C° 0.1 mm 13 mps 729 mmHg 79%
    04:00 +3°C° 0.1 mm 13 mps 729 mmHg 78%
    05:00 +3°C° 0.1 mm 13 mps 730 mmHg 77%
    06:00 +3°C° 0.1 mm 13 mps 731 mmHg 76%
    07:00 +1°C° 0 mm 13 mps 732 mmHg 76%
    08:00 +2°C° 0 mm 12 mps 733 mmHg 75%
    09:00 +2°C° 0 mm 12 mps 734 mmHg 75%
    10:00 +3°C° 0 mm 12 mps 735 mmHg 74%
    11:00 +3°C° 0 mm 12 mps 736 mmHg 73%
    12:00 +4°C° 0 mm 12 mps 736 mmHg 71%
    13:00 +4°C° 0 mm 12 mps 737 mmHg 72%
    14:00 +4°C° 0 mm 13 mps 737 mmHg 73%
    15:00 +4°C° 0 mm 13 mps 737 mmHg 74%
    16:00 +3°C° 0 mm 12 mps 738 mmHg 75%
    17:00 +3°C° 0 mm 11 mps 738 mmHg 76%
    18:00 +3°C° 0 mm 11 mps 739 mmHg 77%
    19:00 +2°C° 0 mm 10 mps 739 mmHg 78%
    20:00 +2°C° 0 mm 8 mps 738 mmHg 79%
    21:00 +3°C° 0 mm 7 mps 738 mmHg 80%
    22:00 +4°C° 0.5 mm 8 mps 737 mmHg 84%
    23:00 +5°C° 0.5 mm 8 mps 737 mmHg 88%

    Day after tomorrow, 14 December, Saturday

    Time Temperature Precipitation Wind Pressure Humidity
    00:00 +7°C° 0.5 mm 9 mps 736 mmHg 92%
    01:00 +6°C° 0.1 mm 10 mps 737 mmHg 87%
    02:00 +5°C° 0.1 mm 12 mps 737 mmHg 83%
    03:00 +4°C° 0.1 mm 13 mps 738 mmHg 78%
    04:00 +4°C° 0 mm 13 mps 739 mmHg 77%
    05:00 +3°C° 0 mm 12 mps 740 mmHg 76%
    06:00 +2°C° 0 mm 11 mps 741 mmHg 75%
    07:00 +2°C° 0 mm 11 mps 742 mmHg 76%
    08:00 +2°C° 0 mm 10 mps 742 mmHg 77%
    09:00 +2°C° 0 mm 9 mps 743 mmHg 78%
    10:00 +3°C° 0 mm 9 mps 743 mmHg 80%
    11:00 +3°C° 0 mm 10 mps 744 mmHg 81%
    12:00 +3°C° 0 mm 10 mps 744 mmHg 82%
    13:00 +3°C° 0 mm 9 mps 744 mmHg 79%
    14:00 +4°C° 0 mm 8 mps 744 mmHg 77%
    15:00 +4°C° 0 mm 7 mps 744 mmHg 74%
    16:00 +4°C° 0 mm 7 mps 744 mmHg 76%
    17:00 +4°C° 0 mm 7 mps 744 mmHg 77%
    18:00 +3°C° 0 mm 7 mps 743 mmHg 78%
    19:00 +5°C° 0.1 mm 9 mps 742 mmHg 79%
    20:00 +6°C° 0.1 mm 10 mps 742 mmHg 80%
    21:00 +7°C° 0.1 mm 12 mps 741 mmHg 81%
    22:00 +5°C° 0.6 mm 13 mps 741 mmHg 76%
    23:00 +4°C° 0.6 mm 13 mps 741 mmHg 71%

    15 December, Sunday

    Time Temperature Precipitation Wind Pressure Humidity
    00:00 +4°C° 0.6 mm 13 mps 741 mmHg 66%
    01:00 +3°C° 0 mm 13 mps 742 mmHg 66%
    02:00 +3°C° 0 mm 13 mps 743 mmHg 67%
    03:00 +3°C° 0 mm 12 mps 744 mmHg 67%
    04:00 +3°C° 0.1 mm 11 mps 744 mmHg 69%
    05:00 +3°C° 0.1 mm 11 mps 745 mmHg 71%
    06:00 +3°C° 0.1 mm 10 mps 745 mmHg 73%
    07:00 +3°C° 0.2 mm 10 mps 746 mmHg 73%
    08:00 +3°C° 0.2 mm 10 mps 746 mmHg 74%
    09:00 +3°C° 0.2 mm 10 mps 747 mmHg 74%
    10:00 +5°C° 0.2 mm 10 mps 747 mmHg 72%
    11:00 +4°C° 0.2 mm 11 mps 747 mmHg 71%
    12:00 +6°C° 0.2 mm 11 mps 748 mmHg 69%
    13:00 +5°C° 0.3 mm 12 mps 747 mmHg 71%
    14:00 +5°C° 0.3 mm 12 mps 747 mmHg 73%
    15:00 +5°C° 0.3 mm 13 mps 746 mmHg 75%
    16:00 +4°C° 0.6 mm 12 mps 747 mmHg 76%
    17:00 +4°C° 0.6 mm 11 mps 747 mmHg 76%
    18:00 +5°C° 0.6 mm 10 mps 747 mmHg 77%
    19:00 +5°C° 0.2 mm 9 mps 748 mmHg 77%
    20:00 +5°C° 0.2 mm 9 mps 748 mmHg 78%
    21:00 +4°C° 0.2 mm 8 mps 748 mmHg 78%
    22:00 +4°C° 0.2 mm 8 mps 749 mmHg 79%
    23:00 +4°C° 0.2 mm 8 mps 749 mmHg 80%

    16 December, Monday

    Time Temperature Precipitation Wind Pressure Humidity
    00:00 +4°C° 0.2 mm 8 mps 749 mmHg 80%
    01:00 +4°C° 0.3 mm 8 mps 749 mmHg 81%
    02:00 +5°C° 0.3 mm 8 mps 749 mmHg 81%
    03:00 +5°C° 0.3 mm 7 mps 749 mmHg 82%
    04:00 +5°C° 0.3 mm 7 mps 749 mmHg 82%
    05:00 +5°C° 0.3 mm 6 mps 749 mmHg 83%
    06:00 +5°C° 0.3 mm 6 mps 749 mmHg 84%
    07:00 +5°C° 0.3 mm 6 mps 749 mmHg 84%
    08:00 +5°C° 0.3 mm 6 mps 750 mmHg 85%
    09:00 +5°C° 0.3 mm 6 mps 750 mmHg 86%
    10:00 +7°C° 0.1 mm 6 mps 750 mmHg 84%
    11:00 +7°C° 0.1 mm 5 mps 750 mmHg 82%
    12:00 +8°C° 0.1 mm 5 mps 750 mmHg 80%
    13:00 +8°C° 0.1 mm 5 mps 749 mmHg 82%
    14:00 +7°C° 0.1 mm 4 mps 749 mmHg 84%
    15:00 +7°C° 0.1 mm 4 mps 749 mmHg 86%
    16:00 +7°C° 0.1 mm 4 mps 749 mmHg 87%
    17:00 +7°C° 0.1 mm 3 mps 749 mmHg 88%
    18:00 +7°C° 0.1 mm 3 mps 749 mmHg 89%
    19:00 +7°C° 0 mm 3 mps 749 mmHg 88%
    20:00 +7°C° 0 mm 3 mps 749 mmHg 88%
    21:00 +7°C° 0 mm 3 mps 749 mmHg 88%
    22:00 +7°C° 0.1 mm 3 mps 749 mmHg 87%
    23:00 +7°C° 0.1 mm 3 mps 749 mmHg 87%

    17 December, Tuesday

    Time Temperature Precipitation Wind Pressure Humidity
    00:00 +7°C° 0.1 mm 3 mps 750 mmHg 86%
    01:00 +6°C° 0 mm 4 mps 750 mmHg 86%
    02:00 +6°C° 0 mm 4 mps 750 mmHg 86%
    03:00 +6°C° 0 mm 5 mps 750 mmHg 86%
    04:00 +5°C° 0 mm 5 mps 750 mmHg 87%
    05:00 +3°C° 0 mm 5 mps 751 mmHg 87%
    06:00 +2°C° 0 mm 5 mps 751 mmHg 88%
    07:00 +3°C° 0 mm 5 mps 752 mmHg 87%
    08:00 +4°C° 0 mm 4 mps 752 mmHg 87%
    09:00 +4°C° 0 mm 4 mps 753 mmHg 87%
    10:00 +5°C° 0 mm 5 mps 753 mmHg 83%
    11:00 +5°C° 0 mm 6 mps 753 mmHg 79%
    12:00 +6°C° 0 mm 7 mps 753 mmHg 74%
    13:00 +6°C° 0 mm 7 mps 754 mmHg 77%
    14:00 +5°C° 0 mm 7 mps 754 mmHg 79%
    15:00 +5°C° 0 mm 7 mps 755 mmHg 82%
    16:00 +4°C° 0 mm 6 mps 755 mmHg 84%
    17:00 +3°C° 0 mm 5 mps 756 mmHg 86%
    18:00 +3°C° 0 mm 5 mps 756 mmHg 88%
    19:00 +4°C° 0 mm 4 mps 757 mmHg 87%
    20:00 +4°C° 0 mm 4 mps 758 mmHg 86%
    21:00 +4°C° 0 mm 4 mps 759 mmHg 85%
    22:00 +4°C° 0 mm 4 mps 759 mmHg 84%
    23:00 +3°C° 0 mm 5 mps 759 mmHg 84%
    Show more